Location: Unspecified
(0.0000°N, 0.0000°E)
Time: 23:02:05
(UTC+00:00)

STARLINK-32315 - Pass Details

Date: 20 April 2025
Orbit: 474 x 476 km, 53.2° (Epoch: 16 May)

Event Time Altitude Azimuth Distance (km) Brightness Sun altitude
Rises 20:00:26 0° 321° (NW) 2,506 7.7 -29.7°
Reaches altitude 10° 20:02:36 10° 318° (NW) 1,632 6.7 -30.2°
Enters shadow 20:03:29 16° 315° (NW) 1,284 6.1 -30.4°
